Lake Powell Weather Center

Moon Phase Calendar



Lake Powell Water Level
Online Cameras

 


      

Current Conditions in Clay Hills Crossing
10/1/2022 7:10:53 PM

75°F
Feels Like 74
Clouds
Humidity
35%
Pressure
29.77"
Wind
3.2 mph (W)
Dew Point
46°F
UV Index
0/10 (Low)
Visibility
6 mi

Hourly Forecast

Date & Time Sat, Oct 1
7:00 PM
Sat, Oct 1
8:00 PM
Sat, Oct 1
9:00 PM
Sat, Oct 1
10:00 PM
Sat, Oct 1
11:00 PM
Sun, Oct 2
12:00 AM
Sun, Oct 2
1:00 AM
Sun, Oct 2
2:00 AM
Sun, Oct 2
3:00 AM
Sun, Oct 2
4:00 AM
Sun, Oct 2
5:00 AM
Sun, Oct 2
6:00 AM
Sun, Oct 2
7:00 AM
Sun, Oct 2
8:00 AM
Sun, Oct 2
9:00 AM
Sun, Oct 2
10:00 AM
Sun, Oct 2
11:00 AM
Sun, Oct 2
12:00 PM
Sun, Oct 2
1:00 PM
Sun, Oct 2
2:00 PM
Sun, Oct 2
3:00 PM
Sun, Oct 2
4:00 PM
Sun, Oct 2
5:00 PM
Sun, Oct 2
6:00 PM
Sun, Oct 2
7:00 PM
Sun, Oct 2
8:00 PM
Sun, Oct 2
9:00 PM
Sun, Oct 2
10:00 PM
Sun, Oct 2
11:00 PM
Mon, Oct 3
12:00 AM
Mon, Oct 3
1:00 AM
Mon, Oct 3
2:00 AM
Mon, Oct 3
3:00 AM
Mon, Oct 3
4:00 AM
Mon, Oct 3
5:00 AM
Mon, Oct 3
6:00 AM
Mon, Oct 3
7:00 AM
Mon, Oct 3
8:00 AM
Mon, Oct 3
9:00 AM
Mon, Oct 3
10:00 AM
Mon, Oct 3
11:00 AM
Mon, Oct 3
12:00 PM
Mon, Oct 3
1:00 PM
Mon, Oct 3
2:00 PM
Mon, Oct 3
3:00 PM
Mon, Oct 3
4:00 PM
Mon, Oct 3
5:00 PM
Mon, Oct 3
6:00 PM
Condition
Clouds

Clouds

Clouds

Clouds

Rain

Rain

Rain

Clouds

Clouds

Rain

Rain

Rain

Rain

Clouds

Clouds

Rain

Clouds

Clouds

Clouds

Clouds

Clouds

Clouds

Clouds

Clouds

Clouds

Rain

Clouds

Clouds

Clouds

Rain

Clear

Clear

Clear

Clear

Clouds

Clouds

Clouds

Clear

Clouds

Rain

Clear

Clear

Clear

Clear

Clear

Clear

Clear

Clear
Temperature 75°F75°F75°F73°F72°F68°F68°F67°F66°F65°F64°F64°F64°F64°F66°F67°F69°F71°F73°F75°F77°F78°F79°F79°F72°F69°F70°F69°F68°F66°F64°F64°F63°F62°F62°F62°F61°F62°F63°F65°F67°F69°F71°F72°F74°F75°F76°F76°F
Feels Like 74°F74°F74°F72°F71°F67°F67°F66°F65°F64°F64°F63°F63°F63°F65°F66°F68°F70°F72°F74°F76°F77°F79°F79°F71°F68°F69°F68°F67°F65°F63°F63°F62°F61°F61°F61°F60°F61°F62°F64°F66°F68°F70°F71°F73°F74°F75°F75°F
Cloudiness 76%71%71%69%70%71%93%79%75%70%65%66%89%74%75%81%85%88%100%91%91%90%73%63%38%69%79%83%75%64%4%6%5%9%11%15%14%10%11%8%8%8%5%4%4%3%2%4%
Visibility 6 mi6 mi6 mi6 mi6 mi6 mi6 mi6 mi6 mi6 mi6 mi6 mi6 mi6 mi6 mi6 mi6 mi6 mi6 mi6 mi6 mi6 mi6 mi6 mi6 mi6 mi6 mi6 mi6 mi6 mi6 mi6 mi6 mi6 mi6 mi6 mi6 mi6 mi6 mi6 mi6 mi6 mi6 mi6 mi6 mi6 mi6 mi6 mi
Precipitation 28%40%60%67%82%86%74%67%68%73%75%82%70%74%74%81%70%70%7%10%10%10%15%23%51%68%85%71%71%87%9%16%28%32%35%35%17%12%9%30%12%15%30%22%22%15%12%20%
Humidity 35%36%37%40%43%51%53%55%56%60%62%65%65%63%58%56%53%49%44%40%37%34%31%29%42%49%51%54%57%61%63%64%66%67%67%68%69%67%64%62%58%53%48%44%40%38%35%34%
Dew Point 46°F46°F47°F48°F48°F49°F49°F49°F50°F50°F50°F51°F51°F51°F50°F50°F50°F50°F50°F49°F48°F47°F45°F44°F47°F49°F50°F51°F51°F51°F51°F51°F51°F50°F50°F50°F50°F50°F50°F50°F51°F50°F50°F49°F48°F47°F46°F45°F
Pressure 29.77"29.77"29.8"29.83"29.83"29.88"29.88"29.91"29.91"29.91"29.91"29.94"29.97"29.97"30"30"30"30"29.97"29.94"29.91"29.88"29.85"29.85"29.91"29.94"29.97"30"30"30.03"30.03"30.03"30.03"30.03"30.03"30.06"30.06"30.06"30.09"30.09"30.06"30.06"30.03"30"29.97"29.94"29.91"29.91"
Wind Speed 3.2 mph0.4 mph2.3 mph2.8 mph5.7 mph4.7 mph2.8 mph2.4 mph2.6 mph2 mph1.5 mph1.2 mph1.2 mph0.6 mph1.6 mph1 mph2 mph3.4 mph3.5 mph3.1 mph1.9 mph2.6 mph3.8 mph4.7 mph9 mph6.6 mph4.7 mph0.7 mph2.1 mph6.1 mph4.7 mph3.6 mph2.4 mph3.4 mph3.6 mph4.1 mph2.7 mph2.2 mph1.7 mph1.6 mph1.7 mph1.5 mph1.1 mph0.9 mph1.2 mph2.2 mph3.5 mph0.7 mph
Wind
Direction
281°
W
225°
SW
79°
E
130°
SE
111°
ESE
99°
E
70°
ENE
120°
ESE
109°
ESE
118°
ESE
108°
ESE
43°
NE
330°
NNW
317°
NW
93°
E
84°
E
116°
ESE
137°
SE
153°
SSE
176°
S
204°
SSW
173°
S
234°
SW
300°
WNW
329°
NNW
265°
W
236°
SW
223°
SW
35°
NE
41°
NE
33°
NNE
24°
NNE

N
10°
N

N

N
23°
NNE
14°
NNE
17°
NNE
66°
ENE
82°
E
96°
E
100°
E
70°
ENE
64°
ENE
36°
NE
12°
NNE
90°
E

Daily Forecast

Date High Low Precip. Humidity
Today
Oct 1

Rain
78 °F
62 °F
82%
40%
Sunday
Oct 2

Rain
79 °F
64 °F
86%
44%
Monday
Oct 3

Rain
76 °F
61 °F
87%
53%
Tuesday
Oct 4

Clear
78 °F
64 °F
15%
37%
Wednesday
Oct 5

Clear
79 °F
66 °F
0%
23%
Thursday
Oct 6

Clear
78 °F
64 °F
0%
37%
Friday
Oct 7

Clear
79 °F
66 °F
0%
30%
Saturday
Oct 8

Rain
78 °F
65 °F
40%
34%
Sunday
Oct 9

Rain
77 °F
64 °F
26%
35%
Monday
Oct 10

Clear
76 °F
64 °F
1%
43%
Tuesday
Oct 11

Clouds
76 °F
65 °F
1%
39%
Wednesday
Oct 12

Clouds
79 °F
64 °F
0%
33%
Thursday
Oct 13

Clear
79 °F
65 °F
0%
34%
Friday
Oct 14

Clear
71 °F
60 °F
0%
32%
Saturday
Oct 15

Clear
73 °F
59 °F
0%
24%
Sunday
Oct 16

Clouds
71 °F
61 °F
7%
22%

Temperature 8-14 Day Outlook



Precipitation 8-14 Day Outlook






About Us
Contact Us
Site Map
Search Site
Advertise With Us
   
Powell.USLakes.info
THE LAKE POWELL WEBSITE

Copyright 2022, Lakes Online
Privacy    |    Legal